Retour au catalogue

SPACEWAY 2

ActifCommunicationsGEO
NORAD 28903·PAYLOAD·🇺🇸 United States

Lancé Nov 16, 2005 depuis Guiana Space Centre

Loading…

TLE

FraisSource: Space-Track

Époque: Sep 14, 2026, 13:30 UTC

1 28903U 05046B   26257.56262309  .00000066  00000-0  00000-0 0  9994
2 28903   5.6964  71.0100 0004239  87.4943 267.7820  0.99062168 52152

Suivez SPACEWAY 2 en temps réel avec AllMySat

Download on the App Store